Regional Weather Roundup
Issued by NWS

Home | Current Version | Previous Version | Text Only | Print | Product List | Glossary On
Versions: 1 2 3 4 5 6 7 8 9 10 11 12 13 14 15 16 17 18 19 20 21 22 23 24 25 26 27 28 29 30 31 32 33 34 35 36 37 38 39 40 41 42 43 44 45 46 47 48 49 50
000
ASUS43 KOAX 242102
RWRNE

WEATHER ROUNDUP FOR NEBRASKA
NATIONAL WEATHER SERVICE OMAHA NE
400 PM CDT TUE MAY 24 2016

NOTES: SATELLITE DATA IS BEING USED TO AUGMENT CLOUD COVER ABOVE
       12000 FEET.
       "FAIR" INDICATES FEW OR NO CLOUDS BELOW 12,000 FEET WITH NO
       SIGNIFICANT WEATHER AND/OR OBSTRUCTIONS TO VISIBILITY.

  * THESE STATIONS DO NOT REPORT WEATHER SUCH AS RAIN...SNOW OR FOG.

NEZ001>004-019>022-054>056-242200-
NEBRASKA PANHANDLE

CITY           SKY/WX    TMP DP  RH WIND       PRES   REMARKS
SCOTTSBLUFF    MOSUNNY   78  48  34 SE18G28   29.83F
ALLIANCE       SUNNY     75  48  38 S20G25    29.86F
CHADRON        MOSUNNY   79  45  29 S20G25    29.81F
SIDNEY         MOSUNNY   77  46  33 SE20G31   29.88F
$$

NEZ057>060-069>072-079>082-242200-
SOUTHWEST NEBRASKA

CITY           SKY/WX    TMP DP  RH WIND       PRES   REMARKS
NORTH PLATTE   SUNNY     79  54  41 SE10G21   29.86F
IMPERIAL       PTSUNNY   76  58  53 SE20G30   29.86F
LEXINGTON      SUNNY     78  60  54 S15       29.87F
MCCOOK         MOSUNNY   77  60  55 S16G24    29.87F
$$

NEZ005>010-023>029-035>040-094-242200-
NORTH CENTRAL NEBRASKA

CITY           SKY/WX    TMP DP  RH WIND       PRES   REMARKS
VALENTINE      SUNNY     81  47  30 SE8       29.86F
AINSWORTH      SUNNY     81  49  33 S9        29.87F
BROKEN BOW     SUNNY     79  57  46 SE10      29.88F
ORD            SUNNY     81  53  37 SE9       29.85F
$$

NEZ041-046>049-061>064-073>077-083>087-242200-
SOUTH CENTRAL NEBRASKA

CITY           SKY/WX    TMP DP  RH WIND       PRES   REMARKS
GRAND ISLAND   SUNNY     78  58  49 SE12      29.89F
HASTINGS       SUNNY     78  61  55 S10       29.89S
KEARNEY *      SUNNY     79  57  47 S14       29.88F
YORK           SUNNY     81  59  47 SW6       29.89S
$$

NEZ011>018-030>034-042>045-242200-
NORTHEAST NEBRASKA

CITY           SKY/WX    TMP DP  RH WIND       PRES   REMARKS
NORFOLK        SUNNY     84  51  31 CALM      29.86S
ALBION         SUNNY     82  51  33 S6        29.86F
BLAIR          SUNNY     81  61  50 CALM      29.90S
FREMONT        SUNNY     81  59  47 S5        29.89F
TEKAMAH        MOSUNNY   82  61  48 CALM      29.87S
$$

NEZ050>053-065>068-078-088>093-242200-
SOUTHEAST NEBRASKA

CITY           SKY/WX    TMP DP  RH WIND       PRES   REMARKS
LINCOLN        PTSUNNY   80  62  54 W3        29.90R
OMAHA EPPLEY   MOSUNNY   81  59  47 SE9       29.89S
FALLS CITY     CLOUDY    83  62  49 SW7       29.88F
PLATTSMOUTH    SUNNY     81  60  49 SW5       29.90F
$$

NEZ044-045-051>053-067-242200-
OMAHA AREA

CITY           SKY/WX    TMP DP  RH WIND       PRES   REMARKS
OMAHA EPPLEY   MOSUNNY   81  59  47 SE9       29.89S
BLAIR          SUNNY     81  61  50 CALM      29.90S
FREMONT        SUNNY     81  59  47 S5        29.89F
PLATTSMOUTH    SUNNY     81  60  49 SW5       29.90F
$$




USA.gov is the U.S. government's official web portal to all federal, state and local government web resources and services.